GFSFLT2_850_thetae_033.txt.gz
Theta_e
299 299 299 299 302 303 302 301 297 291 292 290 288 288 288 288 288 288 290 291 291 292 293 294 295 295 296
302 303 303 302 301 299 299 293 293 291 288 288 288 288 287 287 286 287 288 289 290 291 292 292 293 294 294
302 302 300 299 296 293 293 289 288 288 288 288 287 286 286 287 288 288 288 289 289 289 289 290 291 291 292
299 297 295 291 288 288 288 288 288 287 287 286 286 286 287 288 288 288 288 287 287 287 288 288 289 289 290
295 289 288 289 289 288 288 287 287 287 286 286 286 286 287 287 288 288 288 287 288 288 288 288 289 289 290
287 288 289 288 288 288 287 287 285 285 285 285 286 286 287 288 288 288 288 288 288 288 288 288 288 289 289
288 287 288 287 287 287 285 285 285 285 285 286 286 287 288 288 288 288 288 288 288 288 288 287 288 289 289
286 286 286 286 285 285 285 284 284 284 285 285 286 286 287 288 288 288 288 288 288 288 288 288 287 288 288
284 283 283 283 283 282 283 283 284 285 285 285 287 286 287 289 289 289 288 288 288 288 288 288 288 287 287
284 283 283 283 283 284 284 284 284 284 285 285 285 285 284 288 288 288 289 288 288 288 287 287 287 286 286
282 282 283 284 284 284 284 284 284 284 286 284 285 285 284 285 288 288 287 287 287 287 287 287 287 286 285
283 284 284 285 285 285 285 285 285 285 286 285 285 285 285 285 286 288 287 287 286 287 286 286 286 286 286
284 285 285 286 286 286 286 286 286 286 286 286 286 286 285 285 284 286 286 288 287 287 286 286 286 286 284
285 285 286 286 286 286 285 285 285 286 286 286 286 284 284 283 283 284 286 282 286 286 286 286 287 286 286
285 286 286 286 286 285 285 285 285 286 287 287 286 286 284 283 283 285 285 284 284 284 284 284 285 286 286
285 286 286 286 286 286 285 285 285 286 286 286 286 285 284 284 284 285 285 284 285 284 284 284 285 286 286
286 286 286 286 285 285 285 285 286 286 286 286 286 285 283 284 285 285 285 285 285 285 286 286 285 286 287

GFSFLT2_850_thetae_036.txt.gz
Theta_e
308 305 304 305 304 303 299 300 301 301 300 297 294 290 289 288 288 289 288 289 291 292 293 294 295 296 296
304 304 302 302 300 298 299 300 299 295 294 290 288 289 288 288 287 287 288 289 290 291 291 292 293 294 294
303 301 300 299 298 299 299 296 290 288 289 288 288 287 287 287 288 288 289 289 289 290 290 290 290 291 292
300 300 299 299 297 290 289 289 288 288 287 287 286 286 286 287 287 288 288 288 288 289 289 289 289 289 290
298 297 295 289 289 289 288 288 288 287 286 286 285 285 287 287 287 287 288 288 288 289 289 289 290 290 290
291 288 288 289 288 288 288 287 286 285 285 286 286 288 288 288 288 288 288 288 289 289 289 289 290 290 289
287 287 287 287 287 286 286 285 284 284 284 287 287 288 288 288 288 288 288 288 288 288 288 288 288 289 289
285 285 286 286 285 285 284 283 284 284 284 286 287 288 288 288 289 289 289 288 288 288 288 288 288 288 289
285 284 284 283 283 283 283 283 285 286 286 286 287 287 288 289 289 289 288 288 288 288 288 287 288 288 288
283 283 283 283 283 284 285 285 284 285 285 285 286 286 286 290 289 289 289 288 288 287 287 287 286 287 287
282 283 283 285 285 285 285 285 285 285 286 284 286 286 285 286 289 289 288 288 288 288 287 287 286 286 286
283 284 285 285 285 285 285 285 285 286 286 285 285 286 285 286 286 288 288 288 288 287 287 286 286 286 286
285 285 285 285 285 286 286 286 286 287 287 286 286 286 285 284 283 287 285 288 287 286 286 286 286 286 286
285 285 286 286 286 286 286 286 286 287 287 287 286 286 286 285 284 284 286 283 286 286 285 285 286 286 286
286 286 286 287 287 286 286 286 286 287 288 287 287 286 285 284 284 286 286 285 286 286 285 285 286 287 287
286 286 286 286 286 286 285 285 286 286 287 287 286 286 285 286 285 285 285 285 285 285 285 285 286 286 287
285 285 285 285 285 285 285 285 285 286 286 286 285 285 283 283 286 285 284 285 285 286 286 286 286 287 287

GFSFLT2_850_thetae_039.txt.gz
Theta_e
306 306 304 305 304 304 304 301 300 300 301 298 298 295 291 290 289 291 291 291 291 292 293 294 295 296 296
304 304 304 304 304 302 301 300 299 299 298 296 294 289 290 289 288 288 289 290 291 291 292 292 293 294 295
302 303 302 302 300 299 299 297 297 296 290 289 289 288 287 286 287 289 289 290 290 290 290 291 291 292 292
301 300 299 299 297 296 296 292 290 288 288 288 287 286 285 285 286 287 287 287 287 288 289 289 290 290 290
299 298 297 296 294 290 289 288 288 288 287 286 285 285 286 287 287 287 288 288 288 289 289 290 290 291 291
296 296 290 288 289 288 287 287 286 286 285 285 286 288 288 288 288 288 288 288 288 289 289 289 289 290 290
288 288 288 288 287 286 286 286 285 284 284 287 287 289 288 289 289 289 289 288 288 288 288 289 289 290 290
285 285 285 285 286 285 285 284 284 284 284 287 288 289 289 289 289 289 289 288 288 288 288 288 288 288 289
286 285 284 284 284 283 283 283 285 286 286 287 287 288 289 290 290 289 289 289 288 288 288 288 287 287 287
284 283 283 283 283 284 285 285 285 286 286 286 287 286 288 290 289 289 289 288 288 288 288 288 288 287 287
282 283 283 284 285 285 285 285 285 285 285 285 286 285 283 286 289 289 289 288 288 289 287 287 286 286 286
282 283 285 285 285 285 285 285 285 286 286 285 285 285 284 284 286 289 288 289 288 288 287 287 286 286 285
284 285 285 286 286 286 286 286 287 287 287 286 285 285 285 285 285 287 287 289 289 288 287 286 286 286 286
285 285 286 286 286 286 287 287 287 288 287 286 286 285 285 286 285 287 288 285 288 288 286 286 286 286 287
285 286 286 286 287 287 286 287 286 287 287 287 286 285 285 286 285 287 287 287 287 287 286 286 286 287 287
285 285 286 286 286 286 286 286 285 286 286 286 286 285 285 287 286 287 287 286 286 286 285 284 286 286 287
284 285 285 285 285 286 286 285 285 285 286 285 285 284 282 283 286 285 285 285 285 285 285 285 286 286 286

GFSFLT2_850_thetae_045.txt.gz
Theta_e
308 306 303 300 300 300 299 299 299 299 299 298 298 297 298 298 297 297 297 296 294 295 294 295 295 296 296
303 303 302 300 299 298 297 297 298 297 298 298 298 297 298 297 297 295 293 293 292 291 292 293 293 294 294
301 302 300 299 298 298 297 297 297 297 297 297 297 297 296 293 292 291 290 290 289 290 290 290 290 291 292
300 300 299 299 298 297 296 296 296 296 296 296 294 290 289 289 288 288 287 286 286 286 287 288 288 289 291
299 298 298 297 297 296 296 295 295 292 290 288 288 288 287 286 286 286 286 286 287 287 288 289 291 291 292
297 296 295 295 293 291 290 289 288 288 287 287 286 286 285 285 287 287 288 288 288 288 289 289 290 290 291
293 290 288 288 287 287 287 286 285 285 285 285 285 286 287 287 288 288 288 288 288 288 289 289 289 290 290
286 286 286 285 285 285 285 285 284 284 283 285 287 288 288 288 288 288 288 288 288 288 288 289 288 289 289
285 285 285 285 284 284 284 284 283 284 285 286 287 288 289 289 289 289 289 288 288 288 288 288 288 288 289
284 284 283 283 282 283 283 283 284 285 286 286 286 287 288 289 288 288 288 288 288 288 288 288 288 289 290
282 282 282 282 282 283 284 284 285 285 285 284 286 287 286 287 289 288 288 288 288 288 288 288 289 289 288
282 282 283 283 284 285 285 285 285 285 286 285 285 286 285 286 288 289 289 288 288 289 289 289 288 288 287
283 284 284 285 285 285 286 286 286 287 287 286 286 285 285 284 285 288 288 289 289 289 289 288 288 288 288
285 285 285 285 286 286 286 286 287 287 286 286 285 284 285 285 285 287 288 287 289 288 288 288 288 288 288
285 285 285 286 286 285 285 285 286 287 287 287 285 284 284 284 285 287 287 288 288 288 287 287 288 288 288
285 285 285 285 285 285 284 285 285 285 286 286 285 285 285 286 286 287 286 286 287 286 286 286 287 288 287
283 283 283 283 283 283 283 283 284 285 286 285 285 284 284 284 286 285 285 285 285 285 286 286 286 287 286